Lid_Strength_Index
1 1 1 0 0 0 0 0 -0 -0 -0 -0 -1 -1 -1 -1 -1 -1 -0 -1 -0 -1 -0 -1 -0 -1 -0 -1 -1 -0 0 1 2 1 -0 -1 -1 -1 -1 -2 -2 -2 -1
1 1 1 0 0 1 0 0 0 -0 -0 -1 0 -0 -1 -1 -1 -1 -0 -0 0 1 0 -0 -0 0 -0 -1 -0 -0 0 -0 2 2 1 0 -1 -1 -1 -2 -1 -1 -2
1 1 1 1 1 1 0 0 0 -0 -0 1 0 -0 -1 -1 -1 -1 -1 1 1 1 0 0 0 0 0 1 0 1 -0 0 -0 1 1 1 0 -0 -1 -2 -1 -2 -1
1 1 1 1 1 1 0 0 0 -0 1 1 -0 -1 -1 -1 -1 -1 1 1 1 1 1 0 0 0 0 1 1 0 -0 0 0 1 1 1 1 -1 -0 1 2 0 -0
1 1 1 1 1 0 0 0 0 1 1 0 -1 -1 -1 0 1 0 1 1 1 1 1 1 1 2 3 3 1 -0 -0 1 1 1 1 1 1 1 1 1 2 2 -0
1 1 1 1 1 1 1 1 1 1 1 -1 -0 -0 0 2 1 0 -0 1 1 2 2 2 2 2 3 3 3 2 1 0 1 2 2 2 1 1 1 1 2 2 3
2 2 1 1 1 1 1 1 2 1 1 0 -0 -0 -0 1 1 2 3 2 2 2 2 2 2 3 1 0 3 3 3 3 2 -0 1 1 1 1 0 1 0 1 2
2 2 2 2 2 1 1 1 1 1 1 0 0 -0 0 1 3 3 3 2 2 2 2 2 1 1 1 1 0 1 0 0 0 1 1 1 1 1 0 -0 -0 0 0
2 2 2 1 1 2 1 1 1 2 2 1 0 0 1 1 3 3 3 1 2 2 2 2 2 2 3 4 1 1 1 0 2 1 1 2 1 1 1 2 2 2 3
2 2 1 1 1 1 1 1 2 2 3 3 2 1 2 2 4 3 2 2 2 2 2 1 3 2 2 3 2 1 1 1 0 1 1 1 0 -0 -0 -1 1 3 2
2 1 1 1 1 1 1 1 3 4 3 2 2 2 2 2 4 5 4 1 3 3 2 3 1 3 2 3 3 1 1 0 -0 1 0 0 -0 -0 0 -1 -1 1 2
1 1 1 1 1 1 2 3 2 2 2 2 2 3 3 2 3 5 5 5 4 3 3 3 2 4 3 3 3 2 2 2 1 1 1 1 1 1 -0 -1 -2 -1 -1
2 2 2 1 1 2 3 3 4 3 4 4 4 4 4 3 2 5 6 6 5 4 2 4 4 4 4 4 3 3 2 2 1 1 1 1 1 -0 -1 -1 -2 -3 -3
2 2 2 2 2 2 3 3 4 4 4 4 5 4 4 3 2 2 3 3 4 4 3 2 2 2 2 1 1 1 0 0 1 1 1 1 -0 0 0 -0 0 0 1
2 2 2 2 2 2 2 3 4 2 4 5 4 4 4 4 3 2 3 1 1 3 2 1 1 1 1 1 1 1 1 0 1 0 1 1 1 1 1 -0 0 0 2
3 2 2 2 2 1 2 4 8 7 7 8 9 6 3 6 8 7 8 9 8 7 2 1 1 1 2 1 1 1 1 1 0 -0 0 0 1 1 1 1 0 1 1
2 2 2 2 2 2 3 4 5 5 8 9 8 9 9 8 9 9 10 9 8 7 2 1 1 2 1 1 1 1 2 0 -2 0 0 0 1 1 1 1 1 1 1
1 4 2 2 2 2 2 3 3 5 5 5 8 7 8 9 9 10 10 9 2 4 2 1 1 1 1 1 1 1 1 0 -0 0 1 1 1 1 2 1 1 1 1
2 2 2 2 1 2 2 3 4 4 4 5 4 6 6 9 9 9 9 1 1 1 1 1 1 1 1 1 1 1 0 0 0 0 1 0 1 1 1 1 1 3 3
1 2 2 2 2 2 2 3 4 4 4 4 3 2 2 3 2 1 1 1 1 1 1 1 1 0 0 0 0 0 0 0 1 1 1 1 0 0 1 1 1 2 2
2 2 2 2 2 2 2 3 4 4 4 3 3 2 3 2 2 1 1 1 1 1 1 1 0 0 -0 -0 -0 0 0 0 0 0 0 0 -0 1 0 1 1 1 1
2 1 2 2 2 3 3 4 4 3 3 3 2 2 6 0 1 1 1 1 1 0 -0 -1 -0 -0 0 -0 0 -0 0 0 -0 0 0 0 0 0 1 1 1 1 1
2 2 4 4 5 6 5 4 4 3 3 3 2 1 1 1 0 0 0 0 0 -0 -1 -1 -0 -0 -1 -1 -1 -1 -0 0 0 -0 0 1 1 1 1 1 1 1 1
2 3 5 5 6 6 5 4 3 5 3 2 1 1 1 1 1 0 0 -0 -0 -1 -1 -1 -1 -1 -1 -1 -1 -1 -1 -1 -1 -0 0 0 1 1 1 1 1 1 1
4 4 5 6 6 5 4 4 3 2 1 1 1 1 0 0 0 0 -0 -1 -1 -1 -1 -0 -0 -1 -1 -1 -1 -1 5 5 1 6 1 1 1 1 1 1 1 1 1
5 5 5 5 4 4 3 2 2 1 1 1 1 0 1 0 0 -0 -0 -0 -0 1 0 -0 -0 -1 -1 -1 -1 5 11 7 4 9 3 2 2 2 1 1 1 2 2